Location: Riverside Cemetery
(38.3047°N, 99.7773°W)
Time: 10:53:12
(UTC+00:00)

SPOT 3 Rocket - Pass Details

Date: 19 September 2020
Orbit: 780 x 794 km, 98.8° (Epoch: 25 October)

Event Time Altitude Azimuth Distance (km) Brightness Sun altitude
Exits shadow 02:46:18 51° 51° (NE) 981 3.8 -24.6°
Drops below altitude 10° 02:50:48 10° 357° (N) 2,340 6.3 -25.5°
Sets 02:53:10 0° 353° (N) 3,272 7.2 -25.9°
